Location: Arroyo Retuerta
(40.5469°N, 4.3534°W)
Time: 02:36:04
(UTC+00:00)

Envisat - Pass Details

Date: 30 July 2021
Orbit: 764 x 766 km, 98.2° (Epoch: 22 September)

Event Time Altitude Azimuth Distance (km) Brightness Sun altitude
Rises 04:19:48 0° 32° (NNE) 3,240 7.6 -9.5°
Reaches altitude 10° 04:23:04 10° 54° (NE) 2,308 7.2 -9.0°
Maximum altitude 04:26:06 16° 91° (E) 1,930 6.0 -8.5°
Drops below altitude 10° 04:29:07 10° 128° (SE) 2,297 5.7 -8.1°
Sets 04:32:20 0° 150° (SSE) 3,217 6.2 -7.6°
